Year,Month,Day,Hour,Minute,Value (Times are PST for temperature in C)
2018,07,23,00,00,18.50
2018,07,23,00,01,18.30
2018,07,23,00,02,18.60
2018,07,23,00,03,18.80
2018,07,23,00,04,18.40
2018,07,23,00,05,18.00
2018,07,23,00,06,18.10
2018,07,23,00,07,18.00
2018,07,23,00,08,18.00
2018,07,23,00,09,18.10
2018,07,23,00,10,18.10
2018,07,23,00,11,17.70
2018,07,23,00,12,16.80
2018,07,23,00,13,16.00
2018,07,23,00,14,15.30
2018,07,23,00,15,14.90
2018,07,23,00,16,15.10
2018,07,23,00,17,15.60
2018,07,23,00,18,16.20
2018,07,23,00,19,16.70
2018,07,23,00,20,17.30
2018,07,23,00,21,17.70
2018,07,23,00,22,18.20
2018,07,23,00,23,18.40
2018,07,23,00,24,18.50
2018,07,23,00,25,18.50
2018,07,23,00,26,18.60
2018,07,23,00,27,18.80
2018,07,23,00,28,18.90
2018,07,23,00,29,18.90
2018,07,23,00,30,18.90
2018,07,23,00,31,18.80
2018,07,23,00,32,18.40
2018,07,23,00,33,17.20
2018,07,23,00,34,16.00
2018,07,23,00,35,15.20
2018,07,23,00,36,14.60
2018,07,23,00,37,14.30
2018,07,23,00,38,14.00
2018,07,23,00,39,13.80
2018,07,23,00,40,13.80
2018,07,23,00,41,13.80
2018,07,23,00,42,13.90
2018,07,23,00,43,13.90
2018,07,23,00,44,13.90
2018,07,23,00,45,13.90
2018,07,23,00,46,13.90
2018,07,23,00,47,13.90
2018,07,23,00,48,13.90
2018,07,23,00,49,13.80
2018,07,23,00,50,13.70
2018,07,23,00,51,13.60
2018,07,23,00,52,13.60
2018,07,23,00,53,13.50
2018,07,23,00,54,13.50
2018,07,23,00,55,13.40
2018,07,23,00,56,13.40
2018,07,23,00,57,13.40
2018,07,23,00,58,13.30
2018,07,23,00,59,13.30
2018,07,23,01,00,13.30
2018,07,23,01,01,13.30
2018,07,23,01,02,13.30
2018,07,23,01,03,13.40
2018,07,23,01,04,13.40
2018,07,23,01,05,13.40
2018,07,23,01,06,13.50
2018,07,23,01,07,13.50
2018,07,23,01,08,13.50
2018,07,23,01,09,13.50
2018,07,23,01,10,13.40
2018,07,23,01,11,13.40
2018,07,23,01,12,13.40
2018,07,23,01,13,13.40
2018,07,23,01,14,13.40
2018,07,23,01,15,13.40
2018,07,23,01,16,13.50
2018,07,23,01,17,13.50
2018,07,23,01,18,13.60
2018,07,23,01,19,13.70
2018,07,23,01,20,13.80
2018,07,23,01,21,13.70
2018,07,23,01,22,13.60
2018,07,23,01,23,13.50
2018,07,23,01,24,13.40
2018,07,23,01,25,13.40
2018,07,23,01,26,13.40
2018,07,23,01,27,13.40
2018,07,23,01,28,13.40
2018,07,23,01,29,13.40
2018,07,23,01,30,13.50
2018,07,23,01,31,13.50
2018,07,23,01,32,13.50
2018,07,23,01,33,13.60
2018,07,23,01,34,13.60
2018,07,23,01,35,13.60
2018,07,23,01,36,13.60
2018,07,23,01,37,13.60
2018,07,23,01,38,13.60
2018,07,23,01,39,13.60
2018,07,23,01,40,13.60
2018,07,23,01,41,13.70
2018,07,23,01,42,13.70
2018,07,23,01,43,13.80
2018,07,23,01,44,13.80
2018,07,23,01,45,13.90
2018,07,23,01,46,14.00
2018,07,23,01,47,14.10
2018,07,23,01,48,14.20
2018,07,23,01,49,14.20
2018,07,23,01,50,14.40
2018,07,23,01,51,14.60
2018,07,23,01,52,14.80
2018,07,23,01,53,14.90
2018,07,23,01,54,15.00
2018,07,23,01,55,15.10
2018,07,23,01,56,15.10
2018,07,23,01,57,15.20
2018,07,23,01,58,15.40
2018,07,23,01,59,15.50
2018,07,23,02,00,15.60
2018,07,23,02,01,15.60
2018,07,23,02,02,15.60
2018,07,23,02,03,15.70
2018,07,23,02,04,15.70
2018,07,23,02,05,15.80
2018,07,23,02,06,15.80
2018,07,23,02,07,15.80
2018,07,23,02,08,15.80
2018,07,23,02,09,15.90
2018,07,23,02,10,15.90
2018,07,23,02,11,15.90
2018,07,23,02,12,15.90
2018,07,23,02,13,16.00
2018,07,23,02,14,16.00
2018,07,23,02,15,16.00
2018,07,23,02,16,16.10
2018,07,23,02,17,16.10
2018,07,23,02,18,16.00
2018,07,23,02,19,16.00
2018,07,23,02,20,15.90
2018,07,23,02,21,15.90
2018,07,23,02,22,15.90
2018,07,23,02,23,15.80
2018,07,23,02,24,15.80
2018,07,23,02,25,15.80
2018,07,23,02,26,15.80
2018,07,23,02,27,15.80
2018,07,23,02,28,15.80
2018,07,23,02,29,15.70
2018,07,23,02,30,15.70
2018,07,23,02,31,15.60
2018,07,23,02,32,15.50
2018,07,23,02,33,15.50
2018,07,23,02,34,15.40
2018,07,23,02,35,15.40
2018,07,23,02,36,15.30
2018,07,23,02,37,15.30
2018,07,23,02,38,15.30
2018,07,23,02,39,15.30
2018,07,23,02,40,15.40
2018,07,23,02,41,15.40
2018,07,23,02,42,15.40
2018,07,23,02,43,15.40
2018,07,23,02,44,15.40
2018,07,23,02,45,15.40
2018,07,23,02,46,15.40
2018,07,23,02,47,15.50
2018,07,23,02,48,15.60
2018,07,23,02,49,15.60
2018,07,23,02,50,15.60
2018,07,23,02,51,15.60
2018,07,23,02,52,15.50
2018,07,23,02,53,15.50
2018,07,23,02,54,15.50
2018,07,23,02,55,15.50
2018,07,23,02,56,15.40
2018,07,23,02,57,15.40
2018,07,23,02,58,15.40
2018,07,23,02,59,15.50
2018,07,23,03,00,15.50
2018,07,23,03,01,15.60
2018,07,23,03,02,15.60
2018,07,23,03,03,15.70
2018,07,23,03,04,15.70
2018,07,23,03,05,15.70
2018,07,23,03,06,15.70
2018,07,23,03,07,15.70
2018,07,23,03,08,15.70
2018,07,23,03,09,15.70
2018,07,23,03,10,15.60
2018,07,23,03,11,15.50
2018,07,23,03,12,15.40
2018,07,23,03,13,15.30
2018,07,23,03,14,15.30
2018,07,23,03,15,15.20
2018,07,23,03,16,15.10
2018,07,23,03,17,15.10
2018,07,23,03,18,15.00
2018,07,23,03,19,14.90
2018,07,23,03,20,14.80
2018,07,23,03,21,14.80
2018,07,23,03,22,14.80
2018,07,23,03,23,14.80
2018,07,23,03,24,14.80
2018,07,23,03,25,14.80
2018,07,23,03,26,14.80
2018,07,23,03,27,14.80
2018,07,23,03,28,14.80
2018,07,23,03,29,14.80
2018,07,23,03,30,14.80
2018,07,23,03,46,14.20
2018,07,23,03,47,14.10
2018,07,23,03,48,14.00
2018,07,23,03,49,13.90
2018,07,23,03,50,13.80
2018,07,23,03,51,13.70
2018,07,23,03,52,13.60
2018,07,23,03,53,13.60
2018,07,23,03,54,13.50
2018,07,23,03,55,13.40
2018,07,23,03,56,13.40
2018,07,23,03,57,13.40
2018,07,23,03,58,13.30
2018,07,23,03,59,13.30
2018,07,23,04,00,13.30
2018,07,23,04,01,13.30
2018,07,23,04,02,13.30
2018,07,23,04,03,13.30
2018,07,23,04,04,13.30
2018,07,23,04,05,13.30
2018,07,23,04,06,13.30
2018,07,23,04,07,13.30
2018,07,23,04,08,13.30
2018,07,23,04,09,13.30
2018,07,23,04,10,13.30
2018,07,23,04,11,13.30
2018,07,23,04,12,13.30
2018,07,23,04,13,13.30
2018,07,23,04,14,13.30
2018,07,23,04,15,13.20
2018,07,23,04,16,13.20
2018,07,23,04,17,13.20
2018,07,23,04,18,13.20
2018,07,23,04,19,13.20
2018,07,23,04,20,13.10
2018,07,23,04,21,13.10
2018,07,23,04,22,13.00
2018,07,23,04,23,13.00
2018,07,23,04,24,13.00
2018,07,23,04,25,12.90
2018,07,23,04,26,12.90
2018,07,23,04,27,12.90
2018,07,23,04,28,12.90
2018,07,23,04,29,12.90
2018,07,23,04,30,12.90
2018,07,23,04,31,12.90
2018,07,23,04,32,12.90
2018,07,23,04,33,12.90
2018,07,23,04,34,12.90
2018,07,23,04,35,13.00
2018,07,23,04,36,13.00
2018,07,23,04,37,13.10
2018,07,23,04,38,13.10
2018,07,23,04,39,13.10
2018,07,23,04,40,13.20
2018,07,23,04,41,13.20
2018,07,23,04,42,13.20
2018,07,23,04,43,13.20
2018,07,23,04,44,13.30
2018,07,23,04,45,13.30
2018,07,23,04,46,13.30
2018,07,23,04,47,13.30
2018,07,23,04,48,13.40
2018,07,23,04,49,13.40
2018,07,23,04,50,13.40
2018,07,23,04,51,13.40
2018,07,23,04,52,13.40
2018,07,23,04,53,13.40
2018,07,23,04,54,13.40
2018,07,23,04,55,13.30
2018,07,23,04,56,13.30
2018,07,23,04,57,13.30
2018,07,23,04,58,13.30
2018,07,23,04,59,13.30
2018,07,23,05,00,13.20
2018,07,23,05,01,13.20
2018,07,23,05,02,13.20
2018,07,23,05,03,13.20
2018,07,23,05,04,13.10
2018,07,23,05,05,13.20
2018,07,23,05,06,13.10
2018,07,23,05,07,13.10
2018,07,23,05,08,13.20
2018,07,23,05,09,13.20
2018,07,23,05,10,13.20
2018,07,23,05,11,13.30
2018,07,23,05,12,13.30
2018,07,23,05,13,13.30
2018,07,23,05,14,13.30
2018,07,23,05,15,13.30
2018,07,23,05,16,13.30
2018,07,23,05,17,13.30
2018,07,23,05,18,13.30
2018,07,23,05,19,13.30
2018,07,23,05,20,13.30
2018,07,23,05,21,13.30
2018,07,23,05,22,13.30
2018,07,23,05,23,13.30
2018,07,23,05,24,13.20
2018,07,23,05,25,13.20
2018,07,23,05,26,13.20
2018,07,23,05,27,13.10
2018,07,23,05,28,13.00
2018,07,23,05,29,13.00
2018,07,23,05,30,12.90
2018,07,23,05,31,12.90
2018,07,23,05,32,12.90
2018,07,23,05,33,12.90
2018,07,23,05,34,12.90
2018,07,23,05,35,12.90
2018,07,23,05,36,12.80
2018,07,23,05,37,12.70
2018,07,23,05,38,12.70
2018,07,23,05,39,12.70
2018,07,23,05,40,12.70
2018,07,23,05,41,12.70
2018,07,23,05,42,12.90
2018,07,23,05,43,13.00
2018,07,23,05,44,13.30
2018,07,23,05,45,13.50
2018,07,23,05,46,13.70
2018,07,23,05,47,13.90
2018,07,23,05,48,14.10
2018,07,23,05,49,14.30
2018,07,23,05,50,14.50
2018,07,23,05,51,14.60
2018,07,23,05,52,14.70
2018,07,23,05,53,14.80
2018,07,23,05,54,14.80
2018,07,23,05,55,14.80
2018,07,23,05,56,14.90
2018,07,23,05,57,15.00
2018,07,23,05,58,15.00
2018,07,23,05,59,15.10
2018,07,23,06,00,15.10
2018,07,23,06,01,15.20
2018,07,23,06,02,15.30
2018,07,23,06,03,15.30
2018,07,23,06,04,15.40
2018,07,23,06,05,15.40
2018,07,23,06,06,15.50
2018,07,23,06,07,15.60
2018,07,23,06,08,15.70
2018,07,23,06,09,15.70
2018,07,23,06,10,15.70
2018,07,23,06,11,15.70
2018,07,23,06,12,15.80
2018,07,23,06,13,15.80
2018,07,23,06,14,15.80
2018,07,23,06,15,15.80
2018,07,23,06,16,15.90
2018,07,23,06,17,15.90
2018,07,23,06,18,16.00
2018,07,23,06,19,16.00
2018,07,23,06,20,16.00
2018,07,23,06,21,16.10
2018,07,23,06,22,16.20
2018,07,23,06,23,16.30
2018,07,23,06,24,16.30
2018,07,23,06,25,16.40
2018,07,23,06,26,16.40
2018,07,23,06,27,16.50
2018,07,23,06,28,16.60
2018,07,23,06,29,16.60
2018,07,23,06,30,16.60
2018,07,23,06,31,16.60
2018,07,23,06,32,16.60
2018,07,23,06,33,16.60
2018,07,23,06,34,16.60
2018,07,23,06,35,16.60
2018,07,23,06,36,16.50
2018,07,23,06,37,16.50
2018,07,23,06,38,16.50
2018,07,23,06,39,16.50
2018,07,23,06,40,16.40
2018,07,23,06,41,16.20
2018,07,23,06,42,16.10
2018,07,23,06,43,16.00
2018,07,23,06,44,15.90
2018,07,23,06,45,15.80
2018,07,23,06,46,15.60
2018,07,23,06,47,15.60
2018,07,23,06,48,15.60
2018,07,23,06,49,15.60
2018,07,23,06,50,15.60
2018,07,23,06,51,15.40
2018,07,23,06,52,15.20
2018,07,23,06,53,14.90
2018,07,23,06,54,14.60
2018,07,23,06,55,14.40
2018,07,23,06,56,14.20
2018,07,23,06,57,13.90
2018,07,23,06,58,13.70
2018,07,23,06,59,13.40
2018,07,23,07,00,13.20
2018,07,23,07,01,13.10
2018,07,23,07,02,12.90
2018,07,23,07,03,12.80
2018,07,23,07,04,12.70
2018,07,23,07,05,12.60
2018,07,23,07,06,12.60
2018,07,23,07,07,12.60
2018,07,23,07,08,12.60
2018,07,23,07,09,12.70
2018,07,23,07,10,12.60
2018,07,23,07,11,12.60
2018,07,23,07,12,12.60
2018,07,23,07,13,12.70
2018,07,23,07,14,12.70
2018,07,23,07,15,12.70
2018,07,23,07,16,12.70
2018,07,23,07,17,12.80
2018,07,23,07,18,12.90
2018,07,23,07,19,12.90
2018,07,23,07,20,12.90
2018,07,23,07,21,12.90
2018,07,23,07,22,12.90
2018,07,23,07,23,12.80
2018,07,23,07,24,12.70
2018,07,23,07,25,12.60
2018,07,23,07,26,12.50
2018,07,23,07,27,12.40
2018,07,23,07,28,12.50
2018,07,23,07,29,12.40
2018,07,23,07,30,12.40
2018,07,23,07,31,12.30
2018,07,23,07,32,12.20
2018,07,23,07,33,12.20
2018,07,23,07,34,12.30
2018,07,23,07,35,12.30
2018,07,23,07,36,12.20
2018,07,23,07,37,12.20
2018,07,23,07,38,12.20
2018,07,23,07,39,12.20
2018,07,23,07,40,12.30
2018,07,23,07,41,12.30
2018,07,23,07,42,12.20
2018,07,23,07,43,12.10
2018,07,23,07,44,12.10
2018,07,23,07,45,12.10
2018,07,23,07,46,12.10
2018,07,23,07,47,12.10
2018,07,23,07,48,12.10
2018,07,23,07,49,12.10
2018,07,23,07,50,12.20
2018,07,23,07,51,12.30
2018,07,23,07,52,12.40
2018,07,23,07,53,12.60
2018,07,23,07,54,12.70
2018,07,23,07,55,12.80
2018,07,23,07,56,12.90
2018,07,23,07,57,13.00
2018,07,23,07,58,13.10
2018,07,23,07,59,13.20
2018,07,23,08,00,13.20
2018,07,23,08,01,13.20
2018,07,23,08,02,13.10
2018,07,23,08,03,13.10
2018,07,23,08,04,13.00
2018,07,23,08,05,12.90
2018,07,23,08,06,12.70
2018,07,23,08,07,12.50
2018,07,23,08,08,12.40
2018,07,23,08,09,12.30
2018,07,23,08,10,12.30
2018,07,23,08,11,12.20
2018,07,23,08,12,12.10
2018,07,23,08,13,12.00
2018,07,23,08,14,11.90
2018,07,23,08,15,11.90
2018,07,23,08,16,11.90
2018,07,23,08,17,11.90
2018,07,23,08,18,11.90
2018,07,23,08,19,11.90
2018,07,23,08,20,11.90
2018,07,23,08,21,12.00
2018,07,23,08,22,12.10
2018,07,23,08,23,12.30
2018,07,23,08,24,12.40
2018,07,23,08,25,12.30
2018,07,23,08,26,12.30
2018,07,23,08,27,12.20
2018,07,23,08,28,12.20
2018,07,23,08,29,12.20
2018,07,23,08,30,12.30
2018,07,23,08,31,12.40
2018,07,23,08,32,12.40
2018,07,23,08,33,12.30
2018,07,23,08,34,12.30
2018,07,23,08,35,12.20
2018,07,23,08,36,12.10
2018,07,23,08,37,12.10
2018,07,23,08,38,12.00
2018,07,23,08,39,11.90
2018,07,23,08,40,11.90
2018,07,23,08,41,11.90
2018,07,23,08,42,11.80
2018,07,23,08,43,11.80
2018,07,23,08,44,11.80
2018,07,23,08,45,11.70
2018,07,23,08,46,11.70
2018,07,23,08,47,11.70
2018,07,23,08,48,11.70
2018,07,23,08,49,11.70
2018,07,23,08,50,11.70
2018,07,23,08,51,11.70
2018,07,23,08,52,11.70
2018,07,23,08,53,11.70
2018,07,23,08,54,11.70
2018,07,23,08,55,11.70
2018,07,23,08,56,11.70
2018,07,23,08,57,11.70
2018,07,23,08,58,11.70
2018,07,23,08,59,11.70
2018,07,23,09,00,11.60
2018,07,23,09,01,11.60
2018,07,23,09,02,11.60
2018,07,23,09,03,11.60
2018,07,23,09,04,11.70
2018,07,23,09,05,11.70
2018,07,23,09,06,11.70
2018,07,23,09,07,11.70
2018,07,23,09,08,11.70
2018,07,23,09,09,11.70
2018,07,23,09,10,11.70
2018,07,23,09,11,11.70
2018,07,23,09,12,11.70
2018,07,23,09,13,11.70
2018,07,23,09,14,11.70
2018,07,23,09,15,11.70
2018,07,23,09,16,11.70
2018,07,23,09,17,11.60
2018,07,23,09,18,11.60
2018,07,23,09,19,11.60
2018,07,23,09,20,11.60
2018,07,23,09,21,11.60
2018,07,23,09,22,11.60
2018,07,23,09,23,11.60
2018,07,23,09,24,11.60
2018,07,23,09,25,11.60
2018,07,23,09,26,11.60
2018,07,23,09,27,11.60
2018,07,23,09,28,11.60
2018,07,23,09,29,11.60
2018,07,23,09,30,11.60
2018,07,23,09,31,11.60
2018,07,23,09,32,11.60
2018,07,23,09,33,11.60
2018,07,23,09,34,11.60
2018,07,23,09,35,11.60
2018,07,23,09,36,11.60
2018,07,23,09,37,11.60
2018,07,23,09,38,11.60
2018,07,23,09,39,11.60
2018,07,23,09,40,11.70
2018,07,23,09,41,11.60
2018,07,23,09,42,11.70
2018,07,23,09,43,11.70
2018,07,23,09,44,11.70
2018,07,23,09,45,11.70
2018,07,23,09,46,11.70
2018,07,23,09,47,11.70
2018,07,23,09,48,11.70
2018,07,23,09,49,11.70
2018,07,23,09,50,11.70
2018,07,23,09,51,11.70
2018,07,23,09,52,11.70
2018,07,23,09,53,11.70
2018,07,23,09,54,11.70
2018,07,23,09,55,11.70
2018,07,23,09,56,11.80
2018,07,23,09,57,11.80
2018,07,23,09,58,11.80
2018,07,23,09,59,11.80
2018,07,23,10,00,11.80
2018,07,23,10,01,11.80
2018,07,23,10,02,11.80
2018,07,23,10,03,11.80
2018,07,23,10,04,11.80
2018,07,23,10,05,11.80
2018,07,23,10,06,11.80
2018,07,23,10,07,11.80
2018,07,23,10,08,11.80
2018,07,23,10,09,11.80
2018,07,23,10,10,11.80
2018,07,23,10,11,11.80
2018,07,23,10,12,11.80
2018,07,23,10,13,11.80
2018,07,23,10,14,11.80
2018,07,23,10,15,11.80
2018,07,23,10,16,11.80
2018,07,23,10,17,11.80
2018,07,23,10,18,11.80
2018,07,23,10,19,11.80
2018,07,23,10,20,11.80
2018,07,23,10,21,11.80
2018,07,23,10,22,11.80
2018,07,23,10,23,11.80
2018,07,23,10,24,11.80
2018,07,23,10,25,11.80
2018,07,23,10,26,11.80
2018,07,23,10,27,11.80
2018,07,23,10,28,11.80
2018,07,23,10,29,11.80
2018,07,23,10,30,11.70
2018,07,23,10,31,11.70
2018,07,23,10,32,11.70
2018,07,23,10,33,11.70
2018,07,23,10,34,11.70
2018,07,23,10,35,11.70
2018,07,23,10,36,11.70
2018,07,23,10,37,11.70
2018,07,23,10,38,11.70
2018,07,23,10,39,11.70
2018,07,23,10,40,11.70
2018,07,23,10,41,11.70
2018,07,23,10,42,11.70
2018,07,23,10,43,11.70
2018,07,23,10,44,11.70
2018,07,23,10,45,11.70
2018,07,23,10,46,11.70
2018,07,23,10,47,11.70
2018,07,23,10,48,11.70
2018,07,23,10,49,11.70
2018,07,23,10,50,11.70
2018,07,23,10,51,11.70
2018,07,23,10,52,11.70
2018,07,23,10,53,11.70
2018,07,23,10,54,11.70
2018,07,23,10,55,11.70
2018,07,23,10,56,11.70
2018,07,23,10,57,11.70
2018,07,23,10,58,11.70
2018,07,23,10,59,11.70
2018,07,23,11,00,11.70
2018,07,23,11,01,11.70
2018,07,23,11,02,11.70
2018,07,23,11,03,11.70
2018,07,23,11,04,11.80
2018,07,23,11,05,11.80
2018,07,23,11,06,11.80
2018,07,23,11,07,11.80
2018,07,23,11,08,11.80
2018,07,23,11,09,11.80
2018,07,23,11,10,11.80
2018,07,23,11,11,11.80
2018,07,23,11,12,11.80
2018,07,23,11,13,11.80
2018,07,23,11,14,11.80
2018,07,23,11,15,11.80
2018,07,23,11,16,11.80
2018,07,23,11,17,11.80
2018,07,23,11,18,11.80
2018,07,23,11,19,11.80
2018,07,23,11,20,11.80
2018,07,23,11,21,11.80
2018,07,23,11,22,11.80
2018,07,23,11,23,11.80
2018,07,23,11,24,11.90
2018,07,23,11,25,11.80
2018,07,23,11,26,11.90
2018,07,23,11,27,11.90
2018,07,23,11,28,11.90
2018,07,23,11,29,11.90
2018,07,23,11,30,11.90
2018,07,23,11,31,11.80
2018,07,23,11,32,11.80
2018,07,23,11,33,11.80
2018,07,23,11,34,11.80
2018,07,23,11,35,11.80
2018,07,23,11,36,11.80
2018,07,23,11,37,11.80
2018,07,23,11,38,11.80
2018,07,23,11,39,11.80
2018,07,23,11,40,11.80
2018,07,23,11,41,11.80
2018,07,23,11,42,11.80
2018,07,23,11,43,11.80
2018,07,23,11,44,11.80
2018,07,23,11,45,11.80
2018,07,23,11,46,11.80
2018,07,23,11,47,11.90
2018,07,23,11,48,11.80
2018,07,23,11,49,11.90
2018,07,23,11,50,11.90
2018,07,23,11,51,11.80
2018,07,23,11,52,11.90
2018,07,23,11,53,11.90
2018,07,23,11,54,11.80
2018,07,23,11,55,11.90
2018,07,23,11,56,11.90
2018,07,23,11,57,11.90
2018,07,23,11,58,11.90
2018,07,23,11,59,11.90
2018,07,23,12,00,11.90
2018,07,23,12,01,11.90
2018,07,23,12,02,11.90
2018,07,23,12,03,11.90
2018,07,23,12,04,11.90
2018,07,23,12,05,11.90
2018,07,23,12,06,11.90
2018,07,23,12,07,11.90
2018,07,23,12,08,11.90
2018,07,23,12,09,12.00
2018,07,23,12,10,11.90
2018,07,23,12,11,12.00
2018,07,23,12,12,12.00
2018,07,23,12,13,12.00
2018,07,23,12,14,12.00
2018,07,23,12,15,12.00
2018,07,23,12,16,12.00
2018,07,23,12,17,12.00
2018,07,23,12,18,12.00
2018,07,23,12,19,12.00
2018,07,23,12,20,12.00
2018,07,23,12,21,12.00
2018,07,23,12,22,12.00
2018,07,23,12,23,12.00
2018,07,23,12,24,12.10
2018,07,23,12,25,12.10
2018,07,23,12,26,12.10
2018,07,23,12,27,12.10
2018,07,23,12,28,12.20
2018,07,23,12,29,12.20
2018,07,23,12,30,12.20
2018,07,23,12,31,12.20
2018,07,23,12,32,12.20
2018,07,23,12,33,12.30
2018,07,23,12,34,12.30
2018,07,23,12,35,12.30
2018,07,23,12,36,12.30
2018,07,23,12,37,12.30
2018,07,23,12,38,12.30
2018,07,23,12,39,12.30
2018,07,23,12,40,12.30
2018,07,23,12,41,12.30
2018,07,23,12,42,12.30
2018,07,23,12,43,12.30
2018,07,23,12,44,12.30
2018,07,23,12,45,12.30
2018,07,23,12,46,12.30
2018,07,23,12,47,12.30
2018,07,23,12,48,12.30
2018,07,23,12,49,12.30
2018,07,23,12,50,12.30
2018,07,23,12,51,12.30
2018,07,23,12,52,12.30
2018,07,23,12,53,12.30
2018,07,23,12,54,12.40
2018,07,23,12,55,12.40
2018,07,23,12,56,12.40
2018,07,23,12,57,12.40
2018,07,23,12,58,12.40
2018,07,23,12,59,12.40
2018,07,23,13,00,12.40
2018,07,23,13,01,12.40
2018,07,23,13,02,12.40
2018,07,23,13,03,12.40
2018,07,23,13,04,12.40
2018,07,23,13,05,12.40
2018,07,23,13,06,12.50
2018,07,23,13,07,12.50
2018,07,23,13,08,12.50
2018,07,23,13,09,12.50
2018,07,23,13,10,12.60
2018,07,23,13,11,12.60
2018,07,23,13,12,12.60
2018,07,23,13,13,12.60
2018,07,23,13,14,12.60
2018,07,23,13,15,12.60
2018,07,23,13,16,12.60
2018,07,23,13,17,12.60
2018,07,23,13,18,12.60
2018,07,23,13,19,12.60
2018,07,23,13,20,12.60
2018,07,23,13,21,12.50
2018,07,23,13,22,12.50
2018,07,23,13,23,12.50
2018,07,23,13,24,12.50
2018,07,23,13,25,12.40
2018,07,23,13,26,12.40
2018,07,23,13,27,12.50
2018,07,23,13,28,12.60
2018,07,23,13,29,12.60
2018,07,23,13,30,12.60
2018,07,23,13,31,12.60
2018,07,23,13,32,12.60
2018,07,23,13,33,12.50
2018,07,23,13,34,12.50
2018,07,23,13,35,12.50
2018,07,23,13,36,12.50
2018,07,23,13,37,12.50
2018,07,23,13,38,12.50
2018,07,23,13,39,12.50
2018,07,23,13,40,12.40
2018,07,23,13,41,12.50
2018,07,23,13,42,12.40
2018,07,23,13,43,12.40
2018,07,23,13,44,12.50
2018,07,23,13,45,12.50
2018,07,23,13,46,12.50
2018,07,23,13,47,12.50
2018,07,23,13,48,12.50
2018,07,23,13,49,12.50
2018,07,23,13,50,12.50
2018,07,23,13,51,12.60
2018,07,23,13,52,12.50
2018,07,23,13,53,12.60
2018,07,23,13,54,12.60
2018,07,23,13,55,12.60
2018,07,23,13,56,12.60
2018,07,23,13,57,12.60
2018,07,23,13,58,12.60
2018,07,23,13,59,12.50
2018,07,23,14,00,12.50
2018,07,23,14,01,12.50
2018,07,23,14,02,12.40
2018,07,23,14,03,12.40
2018,07,23,14,04,12.40
2018,07,23,14,05,12.30
2018,07,23,14,06,12.30
2018,07,23,14,07,12.30
2018,07,23,14,08,12.30
2018,07,23,14,09,12.30
2018,07,23,14,10,12.30
2018,07,23,14,11,12.30
2018,07,23,14,12,12.30
2018,07,23,14,13,12.30
2018,07,23,14,14,12.30
2018,07,23,14,15,12.30
2018,07,23,14,16,12.30
2018,07,23,14,17,12.30
2018,07,23,14,18,12.30
2018,07,23,14,19,12.30
2018,07,23,14,20,12.30
2018,07,23,14,21,12.30
2018,07,23,14,22,12.30
2018,07,23,14,23,12.30
2018,07,23,14,24,12.30
2018,07,23,14,25,12.30
2018,07,23,14,26,12.30
2018,07,23,14,27,12.40
2018,07,23,14,28,12.40
2018,07,23,14,29,12.40
2018,07,23,14,30,12.50
2018,07,23,14,31,12.50
2018,07,23,14,32,12.60
2018,07,23,14,33,12.60
2018,07,23,14,34,12.60
2018,07,23,14,35,12.70
2018,07,23,14,36,12.70
2018,07,23,14,37,12.60
2018,07,23,14,38,12.60
2018,07,23,14,39,12.50
2018,07,23,14,40,12.50
2018,07,23,14,41,12.50
2018,07,23,14,42,12.50
2018,07,23,14,43,12.50
2018,07,23,14,44,12.50
2018,07,23,14,45,12.60
2018,07,23,14,46,12.60
2018,07,23,14,47,12.70
2018,07,23,14,48,12.70
2018,07,23,14,49,12.80
2018,07,23,14,50,12.90
2018,07,23,14,51,13.10
2018,07,23,14,52,13.20
2018,07,23,14,53,13.40
2018,07,23,14,54,13.70
2018,07,23,14,55,14.40
2018,07,23,14,56,15.10
2018,07,23,14,57,15.70
2018,07,23,14,58,16.90
2018,07,23,14,59,17.30
2018,07,23,15,00,17.20
2018,07,23,15,01,17.10
2018,07,23,15,02,17.40
2018,07,23,15,03,17.50
2018,07,23,15,04,16.60
2018,07,23,15,05,15.90
2018,07,23,15,06,15.80
2018,07,23,15,07,16.30
2018,07,23,15,08,17.20
2018,07,23,15,09,17.60
2018,07,23,15,10,17.10
2018,07,23,15,11,16.20
2018,07,23,15,12,15.30
2018,07,23,15,13,14.70
2018,07,23,15,14,14.40
2018,07,23,15,15,14.20
2018,07,23,15,16,14.20
2018,07,23,15,17,14.10
2018,07,23,15,18,13.90
2018,07,23,15,19,13.80
2018,07,23,15,20,13.70
2018,07,23,15,21,13.50
2018,07,23,15,22,13.50
2018,07,23,15,23,13.30
2018,07,23,15,24,13.20
2018,07,23,15,25,13.20
2018,07,23,15,26,13.10
2018,07,23,15,27,13.10
2018,07,23,15,28,13.10
2018,07,23,15,29,13.10
2018,07,23,15,30,13.00
2018,07,23,15,31,13.00
2018,07,23,15,32,12.90
2018,07,23,15,33,12.90
2018,07,23,15,34,12.90
2018,07,23,15,35,12.90
2018,07,23,15,36,12.90
2018,07,23,15,37,13.00
2018,07,23,15,38,13.00
2018,07,23,15,39,13.00
2018,07,23,15,40,13.00
2018,07,23,15,41,13.00
2018,07,23,15,42,13.00
2018,07,23,15,43,13.10
2018,07,23,15,44,13.10
2018,07,23,15,45,13.20
2018,07,23,15,46,13.20
2018,07,23,15,47,13.30
2018,07,23,15,48,13.40
2018,07,23,15,49,13.40
2018,07,23,15,50,13.40
2018,07,23,15,51,13.40
2018,07,23,15,52,13.30
2018,07,23,15,53,13.30
2018,07,23,15,54,13.20
2018,07,23,15,55,13.10
2018,07,23,15,56,13.10
2018,07,23,15,57,13.10
2018,07,23,15,58,13.00
2018,07,23,15,59,13.00
2018,07,23,16,00,13.00
2018,07,23,16,01,13.10
2018,07,23,16,02,13.20
2018,07,23,16,03,13.50
2018,07,23,16,04,13.70
2018,07,23,16,05,13.60
2018,07,23,16,06,13.60
2018,07,23,16,07,13.60
2018,07,23,16,08,13.50
2018,07,23,16,09,13.50
2018,07,23,16,10,13.50
2018,07,23,16,11,13.40
2018,07,23,16,12,13.40
2018,07,23,16,13,13.30
2018,07,23,16,14,13.30
2018,07,23,16,15,13.30
2018,07,23,16,16,13.30
2018,07,23,16,17,13.40
2018,07,23,16,18,13.40
2018,07,23,16,19,13.50
2018,07,23,16,20,13.60
2018,07,23,16,21,13.70
2018,07,23,16,22,13.80
2018,07,23,16,23,13.70
2018,07,23,16,24,13.70
2018,07,23,16,25,13.80
2018,07,23,16,26,13.70
2018,07,23,16,27,13.60
2018,07,23,16,28,13.50
2018,07,23,16,29,13.40
2018,07,23,16,30,13.40
2018,07,23,16,31,13.30
2018,07,23,16,32,13.30
2018,07,23,16,33,13.30
2018,07,23,16,34,13.20
2018,07,23,16,35,13.20
2018,07,23,16,36,13.20
2018,07,23,16,37,13.30
2018,07,23,16,38,13.40
2018,07,23,16,39,13.40
2018,07,23,16,40,13.50
2018,07,23,16,41,13.50
2018,07,23,16,42,13.60
2018,07,23,16,43,13.80
2018,07,23,16,44,14.00
2018,07,23,16,45,14.30
2018,07,23,16,46,14.50
2018,07,23,16,47,14.40
2018,07,23,16,48,14.40
2018,07,23,16,49,14.20
2018,07,23,16,50,14.00
2018,07,23,16,51,13.90
2018,07,23,16,52,13.80
2018,07,23,16,53,13.70
2018,07,23,16,54,13.60
2018,07,23,16,55,13.60
2018,07,23,16,56,13.50
2018,07,23,16,57,13.40
2018,07,23,16,58,13.40
2018,07,23,16,59,13.40
2018,07,23,17,00,13.50
2018,07,23,17,01,13.70
2018,07,23,17,02,13.90
2018,07,23,17,03,13.80
2018,07,23,17,04,13.80
2018,07,23,17,05,13.90
2018,07,23,17,06,13.80
2018,07,23,17,07,13.70
2018,07,23,17,08,13.50
2018,07,23,17,09,13.40
2018,07,23,17,10,13.30
2018,07,23,17,11,13.30
2018,07,23,17,12,13.30
2018,07,23,17,13,13.30
2018,07,23,17,14,13.30
2018,07,23,17,15,13.30
2018,07,23,17,16,13.30
2018,07,23,17,17,13.40
2018,07,23,17,18,13.40
2018,07,23,17,19,13.50
2018,07,23,17,20,13.50
2018,07,23,17,21,13.50
2018,07,23,17,22,13.50
2018,07,23,17,23,13.50
2018,07,23,17,24,13.40
2018,07,23,17,25,13.30
2018,07,23,17,26,13.30
2018,07,23,17,27,13.30
2018,07,23,17,28,13.30
2018,07,23,17,29,13.40
2018,07,23,17,30,13.50
2018,07,23,17,31,13.50
2018,07,23,17,32,13.60
2018,07,23,17,33,13.60
2018,07,23,17,34,13.60